Tacoma, WA

10:01 PM PDT on July 27, 2017 (GMT -0700)
McChord Air Force Base

Weather History for KTCM - February, 2015

Change the Weather History Date:

Friday, February 6, 2015

  Actual Average Record
Temperature  
Mean Temperature 53 °F -  
Max Temperature 59 °F 46 °F 63 °F (1963)
Min Temperature 47 °F 30 °F 11 °F (2014)
Degree Days  
Heating Degree Days 12    
Growing Degree Days 3 (Base 50)    
Moisture  
Dew Point 54 °F    
Average Humidity 94    
Maximum Humidity 100    
Minimum Humidity 77    
Precipitation  
Precipitation 0.38 in - - ()
Sea Level Pressure  
Sea Level Pressure 29.39 in    
Wind  
Wind Speed 13 mph (South)    
Max Wind Speed 28 mph    
Max Gust Speed 33 mph    
Visibility 9 miles    
Events Rain    
Averages and records for this station are not official NWS values.
T = Trace of Precipitation, MM = Missing Value Source: NWS Daily Summary

Daily Weather History Graph

Daily Weather History Graph

Search for Another Location

Airport or City:

Trip Planner

Search our weather history database for the weather conditions in past years. The results will help you decide how hot, cold, wet, or windy it might be!

Date:

Astronomy

Feb. 06, 2015 Rise Set
Actual Time 7:28 AM PST 5:20 PM PST
Civil Twilight 6:56 AM PST 5:52 PM PST
Nautical Twilight 6:20 AM PST 6:28 PM PST
Astronomical Twilight 5:44 AM PST 7:04 PM PST
Moon 8:27 PM PST (2/6) 8:25 AM PST (2/6)
Length of Visible Light 10h 55m
Length of Day
9h 51m
Waning Gibbous, 93% of the Moon is Illuminated
Feb 6
Waning Gibbous
Feb 11
Last Quarter
Feb 18
New
Feb 25
First Quarter
Mar 5
Full

Hourly Weather History & Observations

Time (PST) Temp. Dew Point Humidity Pressure Visibility Wind Dir Wind Speed Gust Speed Precip Events Conditions
12:42 AM 57.2 °F 55.4 °F 94% 29.40 in 10.0 mi South 15.0 mph 21.9 mph N/A Rain Light Rain
12:58 AM 57.2 °F 55.8 °F 95% 29.41 in 10.0 mi South 16.1 mph - 0.01 in Rain Light Rain
12:59 AM 57.2 °F 55.4 °F 94% 29.40 in 10.0 mi South 13.8 mph - N/A   Overcast
1:01 AM 57.2 °F 55.4 °F 94% 29.40 in 10.0 mi South 11.5 mph 21.9 mph N/A Rain Light Rain
1:02 AM 57.2 °F 55.4 °F 94% 29.40 in 10.0 mi South 10.4 mph 21.9 mph N/A   Overcast
1:03 AM 57.2 °F 55.4 °F 94% 29.40 in 10.0 mi South 10.4 mph 21.9 mph N/A Rain Light Rain
1:30 AM 55.4 °F 55.4 °F 100% 29.40 in 10.0 mi South 11.5 mph - N/A   Overcast
1:42 AM 57.2 °F 55.4 °F 94% 29.39 in 10.0 mi South 15.0 mph 23.0 mph N/A Rain Light Rain
1:58 AM 56.1 °F 55.8 °F 99% 29.40 in 10.0 mi South 12.7 mph - 0.02 in Rain Light Rain
2:47 AM 57.2 °F 55.4 °F 94% 29.39 in 10.0 mi South 11.5 mph - N/A   Overcast
2:54 AM 57.2 °F 55.4 °F 94% 29.38 in 10.0 mi South 12.7 mph - N/A Rain Light Rain
2:58 AM 56.8 °F 55.0 °F 94% 29.39 in 10.0 mi South 12.7 mph - 0.01 in Rain Light Rain
3:32 AM 57.2 °F 55.4 °F 94% 29.37 in 10.0 mi SSW 9.2 mph - N/A   Overcast
3:35 AM 57.2 °F 55.4 °F 94% 29.37 in 10.0 mi South 9.2 mph - N/A Rain Light Rain
3:58 AM 55.2 °F 54.9 °F 99% 29.38 in 10.0 mi South 3.5 mph - 0.01 in Rain Light Rain
4:10 AM 55.4 °F 53.6 °F 94% 29.36 in 10.0 mi South 9.2 mph - N/A   Overcast
4:58 AM 57.9 °F 53.2 °F 84% 29.36 in 10.0 mi South 23.0 mph 28.8 mph 0.00 in   Overcast
5:38 AM 59.0 °F 51.8 °F 77% 29.35 in 10.0 mi South 19.6 mph 26.5 mph N/A Rain Light Rain
5:39 AM 59.0 °F 51.8 °F 77% 29.35 in 10.0 mi South 18.4 mph 26.5 mph N/A   Mostly Cloudy
5:56 AM 57.2 °F 51.8 °F 82% 29.34 in 10.0 mi South 18.4 mph - N/A Rain Light Rain
5:58 AM 57.7 °F 52.2 °F 82% 29.35 in 10.0 mi South 16.1 mph - 0.00 in Rain Light Rain
6:26 AM 57.2 °F 51.8 °F 82% 29.34 in 10.0 mi South 17.3 mph 24.2 mph N/A   Mostly Cloudy
6:27 AM 57.2 °F 51.8 °F 82% 29.34 in 10.0 mi South 16.1 mph 24.2 mph N/A Rain Light Rain
6:52 AM 57.2 °F 53.6 °F 88% 29.33 in 10.0 mi South 12.7 mph 21.9 mph N/A   Mostly Cloudy
6:58 AM 56.3 °F 53.1 °F 89% 29.34 in 10.0 mi SSE 12.7 mph - 0.00 in   Mostly Cloudy
7:58 AM 58.6 °F 52.0 °F 79% 29.35 in 10.0 mi South 27.6 mph 33.4 mph N/A   Mostly Cloudy
8:40 AM 57.2 °F 53.6 °F 88% 29.36 in 10.0 mi South 15.0 mph - N/A Rain Light Rain
8:49 AM 57.2 °F 53.6 °F 88% 29.36 in 10.0 mi South 15.0 mph - N/A   Mostly Cloudy
8:57 AM 57.2 °F 53.6 °F 88% 29.36 in 10.0 mi South 15.0 mph - N/A Rain Light Rain
8:58 AM 56.5 °F 54.0 °F 91% 29.37 in 10.0 mi South 16.1 mph - 0.00 in Rain Light Rain
9:23 AM 55.4 °F 55.4 °F 100% 29.37 in 10.0 mi South 15.0 mph - N/A   Overcast
9:25 AM 55.4 °F 55.4 °F 100% 29.37 in 10.0 mi South 12.7 mph - N/A Rain Light Rain
9:58 AM 55.8 °F 55.6 °F 99% 29.38 in 10.0 mi SSW 10.4 mph - 0.02 in Rain Light Rain
10:01 AM 55.4 °F 55.4 °F 100% 29.37 in 10.0 mi SSW 9.2 mph - N/A   Overcast
10:03 AM 55.4 °F 55.4 °F 100% 29.37 in 10.0 mi SSW 8.1 mph - N/A Rain Light Rain
10:58 AM 54.9 °F 54.5 °F 99% 29.39 in 9.0 mi SW 8.1 mph - 0.04 in Rain Light Rain
11:08 AM 55.4 °F 55.4 °F 100% 29.38 in 9.0 mi SSW 9.2 mph - N/A   Overcast
11:11 AM 55.4 °F 55.4 °F 100% 29.38 in 8.0 mi SW 9.2 mph - N/A Rain Light Rain
11:13 AM 55.4 °F 55.4 °F 100% 29.38 in 8.0 mi SSW 8.1 mph - N/A   Overcast
11:16 AM 55.4 °F 55.4 °F 100% 29.39 in 8.0 mi SW 8.1 mph - N/A Rain Light Rain
11:36 AM 55.4 °F 55.4 °F 100% 29.39 in 9.0 mi SW 11.5 mph - N/A Rain Light Rain
11:58 AM 54.7 °F 54.7 °F 100% 29.40 in 6.0 mi SSW 3.5 mph - 0.04 in Rain Light Rain
12:33 PM 55.4 °F 55.4 °F 100% 29.38 in 8.0 mi SSW 9.2 mph - N/A   Overcast
12:37 PM 55.4 °F 55.4 °F 100% 29.38 in 7.0 mi SW 10.4 mph - N/A Rain Light Rain
12:51 PM 55.4 °F 53.6 °F 94% 29.39 in 5.0 mi SSW 15.0 mph - N/A   Overcast
12:52 PM 55.4 °F 53.6 °F 94% 29.38 in 5.0 mi SSW 17.3 mph 24.2 mph N/A Rain Rain
12:57 PM 55.4 °F 53.6 °F 94% 29.39 in 6.0 mi SSW 15.0 mph 28.8 mph N/A Rain Light Rain
12:58 PM 55.4 °F 53.6 °F 94% 29.40 in 6.0 mi SSW 15.0 mph 28.8 mph 0.07 in Rain Light Rain
1:03 PM 55.4 °F 53.6 °F 94% 29.39 in 7.0 mi SSW 17.3 mph 28.8 mph N/A Rain Light Rain
1:13 PM 53.6 °F 53.6 °F 100% 29.39 in 5.0 mi SSW 13.8 mph 24.2 mph N/A Rain Light Rain
1:18 PM 53.6 °F 53.6 °F 100% 29.40 in 3.0 mi SSW 19.6 mph 25.3 mph N/A Rain Rain
1:23 PM 53.6 °F 53.6 °F 100% 29.39 in 2.5 mi SSW 17.3 mph 25.3 mph N/A Rain Heavy Rain
1:28 PM 53.6 °F 53.6 °F 100% 29.40 in 2.0 mi SSW 18.4 mph 24.2 mph N/A Rain Rain
1:33 PM 53.6 °F 53.6 °F 100% 29.40 in 3.0 mi SSW 15.0 mph 24.2 mph N/A Rain Rain
1:47 PM 53.6 °F 53.6 °F 100% 29.41 in 10.0 mi SSW 11.5 mph - N/A   Overcast
1:58 PM 53.1 °F 52.9 °F 99% 29.43 in 10.0 mi SSW 10.4 mph - 0.14 in   Overcast
1:59 PM 53.6 °F 53.6 °F 100% 29.42 in 10.0 mi SSW 11.5 mph - N/A Rain Light Rain
2:29 PM 53.6 °F 53.6 °F 100% 29.42 in 10.0 mi South 11.5 mph - N/A   Mostly Cloudy
2:58 PM 54.5 °F 54.3 °F 99% 29.44 in 10.0 mi South 11.5 mph - 0.02 in   Overcast
3:58 PM 55.0 °F 54.7 °F 99% 29.45 in 10.0 mi SSE 9.2 mph - N/A   Overcast
4:58 PM 55.4 °F 51.4 °F 87% 29.46 in 10.0 mi South 10.4 mph - N/A   Partly Cloudy
5:58 PM 53.4 °F 50.2 °F 89% 29.48 in 10.0 mi South 8.1 mph - N/A   Mostly Cloudy
6:58 PM 51.4 °F 48.9 °F 91% 29.49 in 10.0 mi South 11.5 mph - N/A   Scattered Clouds
7:58 PM 52.2 °F 49.6 °F 91% 29.48 in 10.0 mi South 6.9 mph - N/A   Mostly Cloudy
8:58 PM 50.7 °F 48.2 °F 91% 29.48 in 10.0 mi South 6.9 mph - N/A   Overcast
9:58 PM 48.4 °F 48.2 °F 99% 29.48 in 10.0 mi Calm Calm - N/A   Overcast
10:58 PM 47.7 °F 47.5 °F 99% 29.47 in 10.0 mi South 8.1 mph - N/A   Scattered Clouds
11:58 PM 49.3 °F 48.9 °F 99% 29.43 in 10.0 mi Calm Calm - N/A   Mostly Cloudy